Weather in Dezful

Iran     32°22′53″N   48°24′26″E
temp.,
°C
wind,
m/s
gust,
m/s
humid.,
%
clouds,
%
prec.,
mm/h
press.,
hPa
HPBL,
m
22 january, sat
sat2200:30+5ene11460 0.0 102510
03:30+4e00460 0.0 102510
06:30+3n11450 0.0 102410
09:30+7nnw11300 0.0 1024160
12:30+10wsw21250 0.0 1023564
15:30+11sw11260 0.0 1021701
18:30+9sw11390 0.0 102110
21:30+7ene00440 0.0 102210
23 january, sun
sun2300:30+6e00440 0.0 102210
03:30+5nne11440 0.0 102110
06:30+5n11435 0.0 102010
09:30+9nne11300 0.0 1021122
12:30+13wsw11230 0.0 1020523
15:30+14ssw21240 0.0 1019620
18:30+10wsw00400 0.0 101910
21:30+9nne11400 0.0 101910
24 january, mon
mon2400:30+9n11400 0.0 101910
03:30+8n11360 0.0 101910
06:30+8n22300 0.0 101910
09:30+13n12220 0.0 102177
12:30+16w11150 0.0 1019516
15:30+17ssw11170 0.0 1018592
18:30+13w11310 0.0 101910
21:30+12nw11330 0.0 102011
25 january, tue
tue2500:30+11n11310 0.0 102010
03:30+11nnw22305 0.0 102010
06:30+10n22375 0.0 102010
09:30+14nne22351 0.0 102195
12:30+18wnw11271 0.0 1020607
15:30+19w11240 0.0 1018810
18:30+15wnw22370 0.0 101811
21:30+12wnw11430 0.0 101911
26 january, wed
wed2600:30+11ene11430 0.0 101910
03:30+11ene11410 0.0 101810
06:30+10nne22350 0.0 101810
09:30+15nne22270 0.0 101893
12:30+18s23210 0.0 1017709
15:30+19sse3423100 0.0 1015689
18:30+16se2233100 0.0 101517
21:30+15sse2241100 0.0 101612